Kezdőlap
METAR-TAF:

METAR-TAF

Repülőterek :

Council Bluffs, Iowa, Amerikai Egyesült Államok

földrajzi szélesség: 41-16N, földrajzi hosszúság: 095-46W, magasság: 382 m

Jelenlegi meteorológiai megfigyelések

A jelentés 33 perccel ezelõtt készült, 12:55 UTC
Kelet-délkeleti szél 8 kt
Hőmérséklet -3°C
Páratartalom 80%
Légköri nyomás 1023 hPa
Látótávolság: 14.5 km
Borult 1600 lábon

METAR: KCBF 081255Z AUTO 11008KT 9SM OVC016 M03/M06 A3022 RMK AO2

Idő: 07:28 (13:28 UTC)


TAF: hiányzik

Meteorológiai megfigyelések és előrejelzések több, mint 4000 repülőtéren (METAR és TAF jelentéseket).

A térképen piros és sárga pontok jelzik az elérhető meteorológiai állomásokat.

Mozgassa az egeret a pont fölött, hogy megjelenjen az állomás neve.

Azután kattintson az időjárási megfigyelések és előrejelzések megtekintéséhez.

A térkép megváltoztatása: kattintson a fekete keresztel jelölt zöld gombra ráközelítéshez, a vonallal jelölt zöld gombra távolításhoz, vagy a zöld nyilakra a szomszédos térképek eléréséhez.


METAR-TAF: